Regional Weather Roundup
Issued by NWS Sioux Falls, SD

Home | Current Version | Previous Version | Text Only | Print | Product List | Glossary Off
Versions: 1 2 3 4 5 6 7 8 9 10 11 12 13 14 15 16 17 18 19 20 21 22 23 24 25 26 27 28 29 30 31 32 33 34 35 36 37 38 39 40 41 42 43 44 45 46 47 48 49 50

212
ASUS43 KFSD 311010
RWRFSD

WEATHER ROUNDUP FOR SE SOUTH DAKOTA/SW MINNESOTA/NW IOWA
NATIONAL WEATHER SERVICE SIOUX FALLS SD
500 AM CDT TUE MAY 31 2016

NOTE: "FAIR" INDICATES FEW OR NO CLOUDS BELOW 12,000 FEET WITH NO
SIGNIFICANT WEATHER AND OR OBSTRUCTIONS TO VISIBILITY.


SDZ038>040-050-052>070-311100-
SOUTHEAST SOUTH DAKOTA

CITY           SKY/WX    TMP DP  RH WIND       PRES   REMARKS
BROOKINGS      CLOUDY    59  56  89 W12       29.83R
CHAMBERLAIN    CLOUDY    54  51  90 NW12      29.93S
HURON          PTCLDY    56  54  93 W9        29.87R
MADISON        CLOUDY    57  57 100 W18       29.85R
MITCHELL       PTCLDY    59  55  87 W12       29.89R
SIOUX FALLS    LGT RAIN  62  59  90 W9        29.84R
WINNER         FAIR      53  47  79 W9        29.96S
YANKTON        CLOUDY    61  55  82 W13       29.88R
$$

MNZ071-072-080-081-089-090-097-098-311100-
SOUTHWEST MINNESOTA

CITY           SKY/WX    TMP DP  RH WIND       PRES   REMARKS
FAIRMONT       CLOUDY    63  57  82 S9        29.88S
JACKSON        CLOUDY    61  59  94 S8        29.85F
LUVERNE        LGT RAIN  59  57  94 SW8       29.85R
MARSHALL       CLOUDY    62  60  93 S12       29.80R
MONTEVIDEO     DRIZZLE   61  61 100 CALM      29.79S
PIPESTONE      CLOUDY    61  59  94 SW8       29.84R
REDWOOD FALLS  LGT RAIN  62  58  86 S9        29.80F
TRACY          CLOUDY    62  62  97 S10       29.81S
WINDOM         DRIZZLE   63  59  88 CALM      29.84F
WORTHINGTON    LGT RAIN  61  59  93 S7        29.85S
$$

IAZ001>003-012>014-020>022-031-032-NEZ013-014-SDZ071-311100-
NORTHWEST IOWA

CITY           SKY/WX    TMP DP  RH WIND       PRES   REMARKS
CHEROKEE       CLOUDY    62  62 100 S7        29.88R
DENISON        CLOUDY    64  63  94 CALM      29.86R
ESTHERVILLE    LGT RAIN  60  59  96 SE7       29.86F
LE MARS        CLOUDY    63  61  94 SW6       29.89R
ORANGE CITY    LGT RAIN  63  61  94 S5        29.87R
SHELDON        CLOUDY    61  61 100 SE6       29.85R
SIOUX CITY     LGT RAIN  63  60  90 SW5       29.90R
SPENCER        CLOUDY    61  59  93 SE6       29.86S
STORM LAKE     CLOUDY    63  61  94 SW6       29.88R
$$

ABBREVIATIONS USED IN REMARKS
   TC - TEMPERATURE IN CELSIUS
  WCI - WIND CHILL INDEX
   HX - HEAT INDEX
  VSB - VISIBILITY





USA.gov is the U.S. government's official web portal to all federal, state and local government web resources and services.